Temperature
5 5 5 5 5 5 5 4 4 4 4 4 4 4 4 4 4 4 4 5 5 5 5 6 6 6 6 6 7 7 7 7 7 7 7 7 7 7 7 7 7 7 7
5 5 4 4 4 4 4 4 4 4 4 4 4 4 4 4 4 4 4 4 4 5 5 5 6 6 6 6 6 6 7 7 7 7 6 7 7 7 7 7 7 7 7
4 4 4 4 4 4 4 4 3 3 4 4 3 3 3 3 3 4 4 4 4 5 5 5 5 5 5 6 6 6 6 7 7 7 6 6 6 6 6 6 6 6 6
4 4 4 4 4 3 3 3 3 3 3 3 3 3 3 3 3 3 4 4 4 4 5 5 5 5 5 5 5 6 6 6 6 6 6 6 6 6 6 6 6 6 6
3 3 3 3 3 3 3 3 3 3 3 3 3 3 3 3 3 3 3 4 4 4 4 5 5 5 5 5 5 6 6 6 6 6 5 5 5 5 6 6 6 6 5
3 3 3 3 3 3 3 2 2 2 2 2 2 2 2 3 3 3 3 4 4 4 4 5 5 5 5 5 5 6 6 6 6 6 5 5 6 6 6 5 5 5 5
2 2 2 2 2 2 2 2 2 2 2 2 2 2 2 3 3 3 3 4 4 4 4 4 4 5 5 5 5 5 6 6 6 6 6 6 6 6 6 6 5 5 5
2 2 2 2 2 2 2 1 1 1 1 1 1 1 2 2 3 3 3 4 4 4 4 4 4 4 4 5 5 5 5 5 6 6 6 6 6 6 6 6 5 5 5
1 1 1 1 1 1 1 1 1 1 1 1 1 1 2 2 3 3 3 3 3 4 4 4 4 4 4 4 4 5 5 5 5 5 5 5 5 5 5 5 5 5 4
1 1 1 0 0 0 0 0 0 0 1 1 1 1 1 2 2 3 3 3 3 4 4 4 4 4 4 4 4 4 4 5 5 5 5 5 5 5 5 5 5 5 4
0 0 0 -0 -0 -0 -0 -0 -0 0 0 0 1 1 1 2 2 3 3 3 3 4 4 4 4 4 4 4 4 4 5 5 5 4 4 4 4 5 5 5 5 5 5
-0 -0 -1 -1 -1 -1 -1 -0 -0 -0 -0 0 0 1 1 2 2 2 3 3 3 4 3 3 4 4 4 4 4 4 4 4 4 4 4 4 4 4 4 4 4 4 4
-1 -1 -1 -1 -1 -1 -1 -1 -1 -1 -1 -0 -0 0 1 2 2 2 3 3 3 3 3 3 3 3 4 4 4 4 4 4 4 4 4 4 4 4 4 4 4 3 3
-2 -2 -2 -2 -2 -1 -1 -1 -1 -1 -1 -1 -0 0 1 1 1 2 2 2 3 3 3 3 3 3 3 3 3 3 4 4 4 4 4 3 3 3 3 3 3 3 2
-2 -2 -2 -2 -2 -2 -2 -2 -2 -1 -1 -1 -0 -0 0 1 1 2 2 2 2 3 3 3 2 3 3 3 3 3 3 3 3 3 3 3 3 3 3 3 3 2 2
-3 -3 -3 -3 -3 -3 -2 -2 -1 -1 -1 -1 -0 -0 0 1 1 1 2 2 2 2 2 2 2 2 2 2 2 3 3 3 3 3 3 3 3 2 2 2 2 2 2
-4 -3 -3 -3 -3 -3 -3 -3 -2 -1 -1 -1 -1 -0 0 1 1 1 1 2 2 2 2 2 2 2 2 2 2 2 2 3 3 3 3 2 2 2 2 2 1 1 1
-4 -4 -4 -3 -3 -3 -3 -3 -3 -3 -2 -1 -1 -1 -0 0 1 1 1 1 1 2 2 2 2 2 2 2 2 2 2 2 2 2 2 2 2 2 2 1 1 1 1
-4 -4 -4 -4 -4 -4 -4 -4 -3 -3 -3 -3 -2 -1 -1 -0 0 0 1 1 1 1 1 1 2 2 2 2 2 2 2 2 2 2 1 2 2 2 1 1 1 0 0
-5 -4 -4 -4 -4 -4 -4 -4 -4 -4 -3 -3 -2 -2 -1 -1 -0 -0 0 1 1 1 1 1 1 1 1 1 2 2 2 1 1 1 1 1 1 1 1 1 1 0 -0
-5 -5 -5 -5 -4 -4 -4 -4 -4 -4 -4 -3 -3 -2 -2 -1 -1 -1 -0 0 0 0 1 1 1 1 1 1 1 1 1 1 1 1 1 1 1 1 1 1 0 -0 -1
-5 -5 -5 -5 -5 -5 -5 -4 -4 -4 -4 -3 -3 -2 -2 -2 -1 -1 -1 -0 -0 0 0 1 1 1 1 1 1 1 1 1 1 1 1 1 1 1 1 0 -0 -1 -1
-6 -6 -5 -5 -5 -5 -5 -5 -5 -4 -4 -4 -3 -3 -2 -2 -2 -1 -1 -1 -0 -0 0 0 1 1 1 1 1 1 2 2 2 1 1 1 1 1 0 -0 -0 -1 -1
-6 -6 -6 -6 -5 -5 -5 -5 -5 -5 -4 -4 -4 -3 -3 -2 -2 -2 -1 -1 -0 -0 -0 0 1 1 1 1 1 1 1 1 1 1 1 1 1 0 0 -0 -1 -1 -1
-6 -6 -6 -6 -6 -6 -6 -6 -5 -5 -5 -4 -4 -3 -3 -3 -2 -2 -1 -1 -1 -0 -0 0 0 1 1 1 1 1 1 1 1 1 1 1 1 0 0 -0 -1 -1 -1
-7 -6 -6 -6 -6 -6 -6 -6 -5 -5 -5 -4 -4 -4 -3 -3 -2 -2 -1 -1 -1 -0 -0 0 0 0 1 1 1 1 1 1 1 1 1 1 0 0 -0 -0 -1 -1 -1
Wind_Speed
6 6 7 7 7 7 7 8 8 8 8 8 9 9 10 10 11 10 11 11 12 11 10 11 10 8 7 7 6 7 6 5 5 3 2 4 5 5 5 7 9 9 10
6 6 7 8 7 7 8 8 8 8 8 8 8 9 10 11 11 11 12 11 12 11 10 10 10 8 8 7 7 7 7 6 5 5 3 3 4 6 6 6 6 7 7
6 6 7 7 7 7 8 8 8 8 9 8 9 10 11 12 12 11 12 12 12 12 11 10 10 9 9 7 8 7 6 5 5 6 4 3 3 4 5 4 5 4 6
6 6 7 7 7 8 7 7 8 9 9 9 9 10 11 11 11 11 11 11 11 11 10 10 10 10 10 9 8 8 6 6 6 6 5 4 3 3 4 5 4 3 4
6 7 8 7 7 7 7 7 8 9 10 9 9 11 11 11 11 11 10 11 10 10 9 9 9 10 11 10 8 8 8 7 6 6 5 4 4 5 5 4 4 4 3
7 7 8 7 7 7 7 8 9 9 9 9 10 11 11 11 14 16 12 10 10 10 10 9 9 9 11 11 11 10 10 10 9 7 5 8 7 6 5 6 5 5 3
7 8 8 7 7 8 9 9 9 9 9 10 11 11 12 12 16 15 14 10 10 9 9 9 8 8 9 8 8 7 7 10 10 9 9 9 9 9 8 7 6 5 3
8 8 8 7 8 8 8 9 9 9 9 10 10 10 11 12 13 13 13 10 9 9 9 10 9 9 9 8 7 5 4 5 6 6 7 7 7 8 8 7 6 5 4
8 8 8 8 9 9 9 9 9 9 10 10 9 10 10 10 10 11 10 7 7 8 9 9 9 9 9 9 8 6 4 2 2 5 6 6 8 8 8 7 7 6 3
8 8 8 8 9 9 9 9 9 8 9 9 10 9 9 8 9 10 9 6 7 6 6 7 9 9 10 10 8 8 7 5 4 4 5 5 5 7 8 7 8 7 4
8 8 9 8 8 9 8 8 8 9 9 9 9 8 7 7 7 7 7 5 6 6 5 5 6 9 9 9 7 6 8 6 5 6 5 4 4 4 3 3 3 5 5
8 9 9 9 8 8 8 8 8 8 8 8 8 8 5 5 4 5 6 6 5 6 5 5 6 9 8 8 6 7 8 7 5 5 5 4 4 4 4 4 5 5 5
8 9 9 9 8 8 8 8 8 7 6 6 6 6 5 3 2 3 3 3 3 4 5 7 7 8 7 6 7 8 7 6 6 6 5 4 3 5 6 6 7 8 9
9 9 9 9 9 8 7 7 6 6 6 7 6 6 4 3 1 0 2 3 4 4 5 7 8 7 6 6 5 4 4 5 6 6 6 5 5 5 6 5 6 6 6
9 9 9 8 8 8 7 7 7 6 7 7 6 5 4 4 3 3 2 3 3 4 4 4 4 4 4 4 3 3 4 5 5 6 6 6 6 6 5 4 5 5 5
8 8 7 7 7 7 7 8 9 9 12 12 10 8 5 5 4 2 2 3 4 4 4 4 4 5 5 5 4 4 4 5 5 5 6 7 7 7 6 5 5 6 7
8 8 7 7 7 7 7 7 8 9 10 10 9 8 5 3 2 3 4 3 3 4 3 4 4 5 5 4 4 4 4 4 5 6 7 7 7 7 7 7 7 7 7
8 9 9 6 6 6 6 6 6 6 7 7 7 7 5 2 1 2 3 3 2 2 3 3 4 4 5 5 5 5 5 5 5 6 6 6 6 7 7 7 7 8 8
7 6 6 5 5 5 5 5 5 6 5 5 5 5 6 4 1 1 0 2 3 3 3 2 3 3 4 4 5 5 5 6 6 6 6 6 6 7 7 8 8 11 9
6 10 9 6 5 5 5 5 5 5 5 5 4 4 4 3 1 1 1 2 2 3 3 3 2 3 3 4 5 5 5 6 6 6 6 6 6 6 8 9 9 8 7
6 7 10 7 5 5 4 4 4 4 4 4 4 4 5 2 1 1 1 1 2 3 3 3 2 3 3 4 5 5 6 6 6 6 6 6 6 7 7 8 8 8 8
5 5 5 5 4 4 4 4 3 4 4 4 4 4 6 3 1 1 1 1 1 2 2 2 2 2 3 3 4 6 7 7 7 7 7 7 7 7 8 9 9 8 9
5 6 5 4 4 5 5 4 3 4 4 4 3 3 3 2 1 1 0 1 1 1 2 2 3 2 2 2 3 4 6 7 7 8 8 8 7 8 9 10 10 10 9
5 5 5 4 4 4 4 3 3 4 4 3 3 3 2 2 1 1 0 1 1 1 2 2 3 4 4 3 3 4 5 6 7 8 10 10 9 9 9 10 10 10 10
5 5 4 4 4 4 4 3 3 3 3 3 3 2 2 2 1 1 1 1 1 2 2 3 3 4 5 5 5 6 8 10 9 10 9 9 10 10 11 11 10 10 9
5 4 4 3 3 3 3 3 3 3 3 3 2 2 2 2 1 1 1 1 2 2 3 3 4 5 5 6 8 9 10 11 13 14 11 9 10 10 11 10 12 10 11
Wind_Direction
276 276 277 274 265 260 258 259 260 258 257 257 255 256 256 259 256 249 243 241 241 240 238 229 225 224 223 220 214 214 212 203 223 241 215 179 180 177 180 181 177 180 188
281 282 280 276 267 263 261 261 265 264 261 261 260 261 261 263 256 249 246 242 240 238 234 228 225 225 223 220 215 215 214 204 199 208 208 187 190 178 177 176 170 174 180
291 288 286 282 270 266 266 265 268 270 268 266 265 265 265 264 255 248 242 240 239 236 232 228 222 220 225 220 217 214 211 201 188 187 201 191 189 170 163 162 156 166 172
293 290 287 284 278 271 269 268 267 270 269 269 270 268 267 265 257 250 242 239 239 236 233 227 221 217 220 215 214 211 200 187 178 179 182 181 184 172 166 167 165 175 173
300 292 287 282 281 282 277 273 270 270 272 271 272 270 268 264 258 248 241 238 235 233 232 228 226 221 218 217 216 204 191 184 180 182 183 186 190 183 194 180 172 167 163
299 292 290 290 289 289 287 284 278 275 273 273 271 271 271 268 261 253 245 236 230 226 227 228 225 221 217 220 218 212 197 188 187 190 197 197 203 199 188 172 163 168 184
294 292 296 298 295 293 293 291 285 280 276 279 277 276 274 270 263 255 244 231 225 223 222 222 227 224 212 200 198 194 194 192 194 194 195 202 199 195 180 177 183 176 181
295 297 300 302 302 299 297 293 289 286 281 281 281 281 279 270 264 257 243 226 219 219 217 216 215 208 204 189 181 179 187 194 196 195 192 198 198 185 181 180 167 130 99
297 300 303 304 302 299 295 292 293 291 290 285 284 283 279 271 264 258 243 214 216 222 218 213 205 198 194 181 171 168 169 171 139 158 164 171 170 168 162 151 153 145 144
298 299 299 299 297 296 293 292 292 290 290 292 288 284 276 270 264 254 239 214 212 214 205 198 197 193 183 176 171 168 172 171 153 138 129 132 143 150 160 174 169 160 150
298 301 300 299 297 295 293 291 293 294 295 293 293 289 280 271 261 243 231 212 197 194 193 187 183 176 176 174 170 172 174 166 154 142 131 128 126 127 128 131 142 158 157
301 300 302 301 301 303 300 296 292 293 295 294 297 297 291 277 252 237 232 217 198 187 188 177 168 162 162 163 164 161 159 156 151 144 141 143 141 133 122 108 99 91 96
305 302 302 302 300 301 300 299 299 298 297 299 298 297 300 299 270 226 211 199 186 174 165 158 152 150 149 155 157 162 165 161 155 153 155 155 144 136 123 106 92 88 78
303 303 304 303 303 303 303 301 302 301 300 298 296 297 305 301 299 152 155 130 118 126 132 132 130 131 137 144 154 158 163 165 159 157 151 143 132 127 124 123 122 115 97
302 303 305 305 302 302 301 298 295 292 292 297 293 288 285 289 284 285 195 154 139 139 130 129 134 141 143 140 141 144 146 147 145 146 143 140 136 130 125 122 123 116 113
306 305 304 304 304 303 306 308 305 301 306 302 296 291 293 277 270 250 193 154 144 144 137 147 154 157 162 163 160 153 148 148 146 141 139 142 143 142 135 125 120 122 122
302 303 304 304 303 304 307 310 314 319 317 314 314 311 300 285 246 188 164 151 151 140 138 156 162 167 167 169 167 162 153 148 144 141 139 141 142 141 138 135 132 126 123
301 301 302 298 296 298 301 303 307 313 321 326 327 328 331 322 232 171 160 137 130 129 140 155 165 168 167 167 164 157 148 142 138 138 139 141 144 141 139 138 138 135 131
305 303 301 300 299 299 302 304 307 311 314 317 323 334 338 333 340 8 121 138 149 144 140 146 159 165 163 160 158 155 150 146 143 142 142 142 144 142 141 139 137 136 130
306 303 304 302 301 302 303 304 309 312 314 319 324 327 335 341 19 41 75 112 135 141 142 149 152 153 155 156 153 150 144 141 142 140 141 141 142 142 141 140 139 139 134
303 304 304 302 300 300 301 302 304 306 311 318 321 325 332 338 339 46 81 104 144 152 148 144 142 147 150 153 154 151 147 145 143 140 139 141 141 138 136 136 135 133 131
299 297 297 298 299 301 302 299 299 303 312 315 323 332 335 341 352 16 61 88 108 129 134 137 142 149 156 158 160 156 151 147 146 144 141 139 135 136 136 135 134 135 134
296 295 296 295 295 300 304 307 309 310 310 314 321 326 334 343 342 340 79 112 109 115 127 141 144 143 140 140 146 153 157 158 155 152 146 141 136 137 137 137 138 138 136
293 292 290 292 292 292 295 301 305 308 309 311 319 322 323 326 328 320 103 101 103 113 129 139 144 144 138 130 126 127 133 138 140 144 143 142 139 138 137 136 135 136 136
287 285 282 281 285 289 291 292 297 301 304 306 312 319 322 326 331 340 63 98 110 119 126 130 128 127 130 133 137 133 133 134 136 134 133 136 136 137 137 135 135 135 133
286 283 277 275 278 283 285 288 293 299 304 304 308 313 317 323 332 346 58 96 113 111 109 108 114 124 128 127 130 131 131 132 133 132 131 134 136 138 137 134 134 134 133
Height
1413 1411 1409 1408 1406 1405 1404 1402 1400 1399 1397 1395 1394 1393 1391 1390 1389 1388 1387 1388 1388 1389 1390 1392 1394 1397 1399 1401 1403 1405 1407 1409 1409 1410 1413 1415 1418 1420 1423 1425 1428 1430 1432
1408 1406 1403 1402 1400 1399 1397 1395 1394 1392 1390 1388 1387 1385 1383 1382 1381 1380 1379 1380 1381 1381 1383 1385 1387 1390 1392 1394 1396 1398 1400 1402 1404 1405 1407 1410 1412 1415 1418 1420 1422 1424 1427
1402 1400 1398 1395 1394 1392 1390 1389 1387 1385 1383 1381 1379 1377 1375 1374 1373 1372 1372 1372 1374 1375 1376 1378 1380 1383 1385 1387 1389 1391 1393 1396 1398 1400 1401 1405 1407 1410 1413 1415 1417 1419 1422
1397 1394 1392 1390 1388 1386 1384 1382 1380 1378 1376 1373 1371 1369 1367 1365 1364 1364 1364 1365 1366 1368 1369 1372 1374 1376 1378 1380 1383 1385 1387 1390 1392 1395 1397 1400 1403 1405 1408 1409 1411 1414 1416
1392 1390 1387 1385 1383 1380 1378 1375 1373 1371 1368 1365 1363 1361 1359 1357 1356 1356 1356 1357 1359 1361 1363 1365 1367 1370 1372 1375 1377 1379 1381 1384 1387 1390 1392 1395 1398 1400 1402 1404 1407 1409 1412
1388 1385 1382 1380 1377 1374 1371 1369 1366 1363 1361 1358 1355 1353 1350 1349 1348 1348 1349 1349 1351 1354 1356 1358 1361 1364 1366 1369 1371 1374 1376 1378 1381 1385 1387 1390 1392 1395 1397 1399 1402 1404 1406
1384 1381 1378 1375 1371 1368 1365 1362 1359 1356 1353 1350 1348 1345 1342 1340 1340 1341 1342 1343 1345 1347 1350 1352 1355 1358 1361 1363 1366 1368 1371 1374 1377 1380 1382 1384 1387 1389 1392 1395 1397 1400 1402
1379 1377 1373 1370 1366 1363 1360 1356 1353 1350 1347 1344 1340 1337 1335 1333 1333 1334 1335 1337 1339 1341 1344 1347 1349 1352 1355 1358 1360 1363 1366 1370 1373 1376 1378 1380 1383 1386 1388 1391 1394 1396 1399
1375 1372 1369 1365 1362 1358 1354 1351 1348 1345 1341 1337 1334 1331 1328 1327 1327 1327 1329 1331 1333 1336 1338 1341 1344 1347 1350 1354 1356 1359 1362 1365 1369 1372 1374 1377 1379 1381 1384 1387 1390 1392 1394
1371 1368 1364 1361 1357 1353 1349 1346 1343 1340 1335 1332 1328 1325 1323 1321 1321 1322 1324 1326 1328 1331 1333 1336 1340 1343 1346 1350 1352 1355 1357 1361 1364 1367 1370 1372 1375 1377 1381 1384 1386 1388 1391
1366 1363 1359 1356 1352 1348 1345 1341 1338 1334 1331 1327 1324 1321 1319 1317 1317 1318 1320 1322 1324 1327 1329 1332 1336 1340 1343 1346 1349 1352 1354 1358 1361 1363 1365 1368 1371 1373 1377 1380 1383 1386 1388
1361 1357 1354 1350 1347 1344 1340 1336 1333 1330 1326 1323 1320 1317 1315 1314 1314 1315 1317 1319 1322 1324 1326 1329 1333 1336 1339 1343 1346 1349 1352 1355 1358 1360 1362 1364 1367 1370 1373 1377 1380 1383 1385
1355 1352 1349 1345 1342 1339 1336 1332 1329 1326 1323 1319 1317 1314 1313 1312 1312 1313 1315 1317 1319 1321 1324 1327 1330 1333 1337 1340 1343 1346 1350 1352 1354 1356 1358 1361 1365 1367 1371 1374 1377 1380 1383
1350 1347 1344 1341 1337 1334 1331 1328 1325 1322 1319 1317 1314 1312 1311 1311 1311 1312 1313 1315 1317 1320 1322 1325 1328 1331 1335 1338 1341 1344 1346 1349 1351 1353 1356 1359 1363 1366 1368 1372 1375 1378 1381
1345 1342 1339 1336 1333 1330 1327 1325 1322 1319 1318 1315 1312 1311 1311 1309 1310 1311 1312 1314 1316 1318 1320 1323 1326 1329 1332 1335 1338 1340 1343 1346 1349 1351 1354 1357 1360 1363 1367 1371 1374 1377 1380
1341 1338 1335 1332 1329 1327 1323 1320 1318 1317 1314 1312 1311 1309 1308 1308 1309 1310 1312 1313 1315 1317 1319 1321 1324 1327 1330 1332 1335 1338 1341 1344 1347 1350 1353 1356 1359 1362 1366 1369 1373 1376 1379
1337 1334 1331 1328 1326 1323 1321 1318 1314 1312 1311 1309 1307 1306 1306 1306 1307 1308 1310 1312 1314 1316 1318 1320 1322 1325 1328 1331 1334 1336 1339 1342 1345 1349 1351 1354 1358 1361 1365 1368 1372 1375 1378
1332 1330 1327 1325 1322 1320 1318 1316 1313 1310 1307 1305 1305 1304 1304 1305 1306 1307 1309 1310 1312 1314 1316 1318 1321 1324 1327 1330 1332 1335 1338 1341 1344 1348 1350 1353 1357 1360 1364 1367 1371 1374 1378
1328 1325 1323 1321 1319 1317 1315 1313 1311 1309 1307 1305 1303 1303 1303 1303 1304 1306 1307 1309 1310 1312 1315 1318 1320 1323 1326 1328 1331 1334 1337 1340 1343 1346 1349 1353 1356 1359 1363 1367 1370 1374 1378
1323 1322 1320 1318 1316 1314 1313 1311 1309 1307 1306 1305 1303 1303 1302 1303 1303 1305 1306 1308 1310 1312 1315 1317 1320 1322 1325 1327 1330 1333 1336 1339 1342 1346 1349 1352 1356 1359 1363 1366 1370 1373 1377
1320 1318 1317 1315 1314 1312 1311 1309 1307 1306 1305 1304 1303 1303 1303 1303 1303 1304 1306 1307 1309 1311 1314 1316 1319 1321 1324 1327 1329 1332 1335 1338 1342 1345 1348 1352 1355 1358 1362 1366 1370 1374 1378
1317 1315 1314 1313 1311 1310 1309 1307 1306 1305 1304 1303 1302 1302 1302 1302 1303 1304 1305 1306 1308 1311 1313 1316 1318 1321 1323 1326 1329 1331 1334 1337 1341 1344 1348 1351 1354 1358 1362 1366 1370 1374 1378
1314 1312 1311 1310 1309 1308 1307 1306 1305 1304 1303 1302 1301 1301 1301 1302 1302 1303 1304 1306 1308 1310 1313 1315 1318 1320 1323 1326 1328 1331 1334 1337 1340 1344 1347 1350 1354 1358 1361 1366 1370 1374 1377
1311 1310 1308 1307 1306 1305 1305 1304 1303 1302 1302 1301 1301 1301 1301 1301 1302 1303 1304 1306 1308 1310 1313 1315 1317 1320 1322 1325 1328 1331 1334 1337 1341 1344 1348 1350 1354 1358 1362 1366 1370 1374 1378
1308 1307 1306 1305 1304 1303 1303 1302 1302 1301 1301 1300 1300 1300 1300 1300 1301 1303 1304 1306 1308 1310 1313 1315 1317 1320 1322 1325 1327 1331 1334 1337 1341 1344 1348 1351 1355 1358 1362 1366 1370 1374 1378
1305 1304 1303 1302 1302 1301 1301 1300 1300 1300 1299 1299 1299 1299 1299 1300 1301 1303 1304 1306 1308 1310 1313 1315 1317 1319 1322 1325 1328 1331 1334 1337 1341 1344 1348 1351 1355 1359 1363 1367 1371 1375 1379